Starlink 5267

operational
NORAD ID: 55655 Int'l Des: 2023-021 Owner: SPXS Country: US Constellation: starlink
LEOCIRCULAR

Über Starlink 5267

Beschreibung wird geladen...

Live-Position

3D-Globus wird geladen...

Nächste Überflüge

Höhenverlauf

Altitude vs Time

uPlot chart will show altitude changes over time

Zweizeiliger Elementsatz

1 55655U 23021AD 26063.49474659 .00000787 00000-0 73735-4 0 9990
2 55655 70.0009 177.6652 0003218 269.6366 90.4424 14.98333399168493
Epoch: 4. März 2026 • Age: 18 hours

Aktueller Status

Höhe 574.6 km
Geschwindigkeit 7.57 km/s
Subsatellitenpunkt 17.14°N, 105.41°E
Startdatum 17. Feb. 2023
Alter 3 years
Typ internet

Technische Details

Klassifizierung Payload
Masse 305.00 kg
Trockenmasse 290.00 kg
Gesamtmasse 305.00 kg
Länge 0.20 m
Durchmesser 2.80 m
Spannweite 9.00 m
Form Box + pan
Hersteller SPXS
Bus-Typ Starlink
Phasenstatus In Orbit
Besitzer/Staat SPXS/US

Große Konstellationen

Loading constellations...